Regional Weather Roundup
Issued by NWS Midland/Odessa, TX

Skip options and go directly to product.
Home | Oldest Version | Next Version | Current Version | All | Text Only | Save Text | Print | Product List | Glossary On

Skip product version selection by date and time.   
732
ASUS44 KMAF 010201
RWRMAF
MIDLAND AREA WEATHER ROUNDUP
NATIONAL WEATHER SERVICE MIDLAND TX
900 PM CDT TUE JUN 30 2015

...IN SOUTHWEST TEXAS AND SOUTHEAST NEW MEXICO...

CITY           SKY/WX    TMP DP  RH WIND       PRES   REMARKS
ALPINE         NOT AVBL
ANDREWS        NOT AVBL
ARTESIA        CLEAR     86  55  35 SE7       30.03S
BIG SPRING     NOT AVBL
CARLSBAD       PTCLDY    86  53  32 S10       30.01R
DRYDEN           N/A     81  66  60 SE10G23   30.00R
FORT STOCKTON  CLEAR     83  61  47 SE14      30.02R
GUAD PASS      MOCLDY    74  49  41 E18       30.17S
HOBBS          CLEAR     81  55  41 SE9       30.06R
MARFA          PTCLDY   N/A N/A N/A NE10      30.13S
MIDLAND AIRPK  NOT AVBL
MIDLAND INTL   CLEAR     82  65  56 SE9       30.03R
ODESSA         CLEAR     82  62  50 MISG      30.04R
PECOS          NOT AVBL
PRESIDIO       NOT AVBL
SEMINOLE       NOT AVBL
SNYDER         NOT AVBL
WINK           PTCLDY    86  58  38 SE10      29.99R
$$
...OTHER STATIONS IN TEXAS...

CITY           SKY/WX    TMP DP  RH WIND       PRES   REMARKS
ABILENE        MOCLDY    79  70  74 CALM      30.01R
AMARILLO       CLEAR     81  53  37 SE13      30.05R
AUSTIN         MOCLDY    75  74  96 CALM      30.01R
BROWNSVILLE    MOCLDY    81  73  76 E5        29.98R
CORPUS CHRISTI MOCLDY    78  73  84 SE7       30.00R
DALLAS FTW     MOCLDY    87  71  58 S13       29.96R THUNDER
DEL RIO        MOCLDY    79  71  76 E8        29.96S
EL PASO        MOCLDY    83  55  38 S16       30.02R
HOUSTON INT    CLOUDY    73  70  90 SE7       30.01F
LUBBOCK        PTCLDY    79  56  45 SE10      30.05R
SAN ANGELO     PTCLDY    83  68  60 S10G17    29.99R
SAN ANTONIO    MOCLDY    76  70  82 SE6       30.01S
WACO           CLEAR     77  69  76 S12       30.01R
WICHITA FALLS  NOT AVBL
$$
...OTHER LOCATIONS IN NEW MEXICO...

CITY           SKY/WX    TMP DP  RH WIND       PRES   REMARKS
ALAMAGORDO     PTCLDY    88  41  19 E13G22    30.00S
ALBUQUERQUE    PTCLDY    91  45  20 SW9       30.06R
CANNON AFB     CLEAR     80  53  39 SE9       30.09R
CLOVIS         CLEAR     79  50  36 SE9         N/A
HOLLOMAN AFB   MOCLDY    89  47  23 S16G30    29.98R
ROSWELL        PTCLDY    85  55  35 S8        30.02R
RUIDOSO        CLEAR     72  45  37 SE8       30.28R
SANTA FE       CLEAR     85  43  22 SE15G22   30.15R
TRUTH OR CONSE CLEAR     90  41  18 E9        30.03R
TUCUMCARI      CLEAR     85  47  26 S9        30.02R
$$

USA.gov is the U.S. government's official web portal to all federal, state and local government web resources and services.